STARLINK-36259, 67106

Orbit data source: Space-Track

STARLINK-36259, 67106 is a payload satellite owned by SpaceX/Seattle (US) in LEO that was launched on Mon, 15 Dec 2025 UTC via an FALCON 9 launch vehicle from the Air Force Eastern Test Range (AFETR). Payload-class satellites include a variety of spacecraft equipped with specific instruments for various scientific and technological missions. These include communications satellites like Starlink; space stations such as the ISS; scientific satellites like the Hubble; Earth observation satellites from companies like Planet Labs, Umbra, and HawkEye 360; GPS; miniature CubeSats for education and research; and military/defense satellites.

Not visible in the next 10 days
Identifier
67106, 2025-299E
Orbit
LEO
Country
Flag of USUS
Related business
Manufacturer
SpaceX/Seattle
Mission
Operational spacecraft
Bus & Motor
STARLINK V2MO, Unknown motor
Mass
575 kg wet, ~530 kg dry
Launch date (UTC)
2025-12-15 (1 week ago)
Launch vehicle
FALCON 9
Launch site
Air Force Eastern Test Range (AFETR)
Object type
Payload
Rocket body
Debris
Shape & HBR
Unknown
Radar Cross Section
RCS unknown

Expand to show TLE details & history
Last TLE update: 9 hours ago

TLE from 9 hours ago
0 STARLINK-36259
1 67106U 25299E   25355.16668980 -.01391104  57230-3 -33576-2 0  9998
2 67106  42.9994 265.3370 0002189 274.3597 292.1163 15.95541115  2162
Epoch: 2025-12-21T04:00Z
TLE epoch observation values (Epoch: 2025-12-21T04:00:01.998Z)
Latitude
-17.83764°
Longitude
-44.58669°
Altitude
289.99 km
Speed
7.735 km/s
True Right ascension
07h 01m 37s
True Declination
-17° 43' 50"
Sunlit
Object was in full shadow at epoch
Visualization orbit readout
Latitude
Unknown
Longitude
Unknown
Altitude
Unknown
Speed
Unknown
Apparent Right ascension
Unknown
Apparent Declination
Unknown
Sunlit
N/A
Visualization observer readout
Local Sidereal Time
12:15:48
Azimuth
Unknown
Elevation
Unknown
Doppler factor
Unknown
Orbital elements
Apogee altitude
290.269 km
Perigee altitude
287.35 km
Semi-major axis
6,666.946 km
Eccentricity
0.00022
Inclination
42.9994°
RAAN
265.337°
Arg. of periapsis
274.3597°
True anomaly
292.09306°
Mean anomaly
292.1163°
Eccentric anomaly
292.10468°
Mean motion
3.98706 °/min
Orbital period
90.29 mins
BSTAR
-0.0033576
Loading maneuver chart data...
Computing Atmospheric mass density...
Loading historical data...
Loading historical data...
Loading historical data...
Loading historical data...
Loading historical data...
Loading historical data...
Loading historical data...

Documentation

Showing up to 5 results
|